| time (UTC) | temp C | wind direction | speed KPH | gust KPH | rain 1hr cm | rain 24hr cm | rain mn cm | humidity % | barometer mb |
| 20260509120904 | 6 | 112 | 0.0 | 1.6 | 0.00 | 0.00 | 0.00 | 56 | 1021.9 |
| 20260509114804 | 6 | 136 | 0.0 | 0.0 | 0.00 | 0.00 | 0.00 | 55 | 1021.7 |
| 20260509112702 | 7 | 80 | 0.0 | 4.8 | 0.00 | 0.00 | 0.00 | 55 | 1021.6 |
| 20260509111703 | 7 | 126 | 1.6 | 3.2 | 0.00 | 0.00 | 0.00 | 55 | 1021.6 |
| 20260509110704 | 7 | 176 | 1.6 | 6.4 | 0.00 | 0.00 | 0.00 | 54 | 1021.5 |
| 20260509105702 | 7 | 260 | 0.0 | 3.2 | 0.00 | 0.00 | 0.00 | 53 | 1021.5 |
| 20260509104703 | 7 | 185 | 0.0 | 4.8 | 0.00 | 0.00 | 0.00 | 52 | 1021.5 |
| 20260509103703 | 7 | 244 | 0.0 | 3.2 | 0.00 | 0.00 | 0.00 | 51 | 1021.5 |
| 20260509102702 | 7 | 68 | 3.2 | 16.1 | 0.00 | 0.00 | 0.00 | 51 | 1021.5 |
| 20260509101702 | 7 | 30 | 0.0 | 6.4 | 0.00 | 0.00 | 0.00 | 51 | 1021.5 |
| 20260509100703 | 7 | 124 | 3.2 | 0.0 | 0.00 | 0.00 | 0.00 | 52 | 1021.6 |
| 20260509094603 | 7 | 205 | 0.0 | 12.9 | 0.00 | 0.00 | 0.00 | 51 | 1021.6 |
| 20260509092504 | 7 | 126 | 1.6 | 11.3 | 0.00 | 0.00 | 0.00 | 52 | 1021.5 |
| 20260509091502 | 8 | 154 | 1.6 | 3.2 | 0.00 | 0.00 | 0.00 | 51 | 1021.5 |
| 20260509090503 | 8 | 202 | 0.0 | 16.1 | 0.00 | 0.00 | 0.00 | 50 | 1021.5 |
| 20260509085503 | 8 | 123 | 0.0 | 3.2 | 0.00 | 0.00 | 0.00 | 50 | 1021.5 |
| 20260509084502 | 8 | 148 | 1.6 | 6.4 | 0.00 | 0.00 | 0.00 | 50 | 1021.5 |
| 20260509082404 | 9 | 104 | 0.0 | 3.2 | 0.00 | 0.00 | 0.00 | 47 | 1021.5 |
| 20260509080303 | 10 | 145 | 0.0 | 4.8 | 0.00 | 0.00 | 0.00 | 45 | 1021.3 |
| 20260509074203 | 9 | 234 | 4.8 | 4.8 | 0.00 | 0.00 | 0.00 | 46 | 1021.1 |
| 20260509073203 | 10 | 169 | 3.2 | 16.1 | 0.00 | 0.00 | 0.00 | 45 | 1021.3 |
| 20260509072202 | 10 | 241 | 0.0 | 9.7 | 0.00 | 0.00 | 0.00 | 45 | 1021.2 |
| 20260509071203 | 10 | 360 | 3.2 | 6.4 | 0.00 | 0.00 | 0.00 | 45 | 1021.3 |
| 20260509070203 | 10 | 229 | 0.0 | 14.5 | 0.00 | 0.00 | 0.00 | 45 | 1021.3 |
| 20260509065204 | 10 | 360 | 3.2 | 3.2 | 0.00 | 0.00 | 0.00 | 44 | 1021.3 |
| 20260509064204 | 10 | 200 | 1.6 | 9.7 | 0.00 | 0.00 | 0.00 | 44 | 1021.6 |
| 20260509063203 | 10 | 237 | 1.6 | 4.8 | 0.00 | 0.00 | 0.00 | 44 | 1021.6 |
| 20260509062204 | 10 | 123 | 1.6 | 9.7 | 0.00 | 0.00 | 0.00 | 44 | 1021.7 |
| 20260509061204 | 10 | 133 | 0.0 | 14.5 | 0.00 | 0.00 | 0.00 | 45 | 1021.7 |
| 20260509060203 | 10 | 198 | 4.8 | 6.4 | 0.00 | 0.00 | 0.00 | 44 | 1021.7 |
| 20260509055203 | 10 | 360 | 6.4 | 16.1 | 0.00 | 0.00 | 0.00 | 43 | 1021.7 |
| 20260509054204 | 10 | 360 | 1.6 | 14.5 | 0.00 | 0.00 | 0.00 | 43 | 1021.7 |
| 20260509053202 | 10 | 72 | 0.0 | 6.4 | 0.00 | 0.00 | 0.00 | 43 | 1021.7 |
| 20260509051103 | 11 | 99 | 0.0 | 14.5 | 0.00 | 0.00 | 0.00 | 42 | 1021.7 |
| 20260509045003 | 11 | 175 | 1.6 | 11.3 | 0.00 | 0.00 | 0.00 | 41 | 1021.9 |
| 20260509044004 | 11 | 120 | 0.0 | 6.4 | 0.00 | 0.00 | 0.00 | 41 | 1021.7 |
| 20260509043002 | 11 | 179 | 0.0 | 6.4 | 0.00 | 0.00 | 0.00 | 40 | 1021.9 |
| 20260509042003 | 12 | 333 | 1.6 | 11.3 | 0.00 | 0.00 | 0.00 | 39 | 1021.9 |
| 20260509035903 | 12 | 155 | 0.0 | 14.5 | 0.00 | 0.00 | 0.00 | 39 | 1021.7 |
| 20260509034902 | 12 | 147 | 3.2 | 14.5 | 0.00 | 0.00 | 0.00 | 39 | 1021.6 |
| 20260509033903 | 12 | 320 | 0.0 | 16.1 | 0.00 | 0.00 | 0.00 | 38 | 1021.6 |
| 20260509032903 | 12 | 172 | 0.0 | 4.8 | 0.00 | 0.00 | 0.00 | 39 | 1021.5 |
| 20260509031904 | 12 | 150 | 1.6 | 6.4 | 0.00 | 0.00 | 0.00 | 38 | 1021.3 |
| 20260509030904 | 13 | 130 | 1.6 | 3.2 | 0.00 | 0.00 | 0.00 | 37 | 1021.2 |
| 20260509025903 | 13 | 107 | 0.0 | 4.8 | 0.00 | 0.00 | 0.00 | 37 | 1021.1 |
| 20260509024904 | 13 | 169 | 0.0 | 4.8 | 0.00 | 0.00 | 0.00 | 36 | 1020.9 |
| 20260509023904 | 14 | 265 | 0.0 | 3.2 | 0.00 | 0.00 | 0.00 | 34 | 1020.7 |
| 20260509022903 | 15 | 205 | 1.6 | 9.7 | 0.00 | 0.00 | 0.00 | 32 | 1020.5 |
| 20260509021903 | 15 | 360 | 0.0 | 12.9 | 0.00 | 0.00 | 0.00 | 30 | 1020.3 |
| 20260509020902 | 15 | 152 | 0.0 | 6.4 | 0.00 | 0.00 | 0.00 | 31 | 1020.1 |
| 20260509015902 | 16 | 263 | 3.2 | 14.5 | 0.00 | 0.00 | 0.00 | 28 | 1019.9 |
| 20260509014903 | 16 | 360 | 3.2 | 14.5 | 0.00 | 0.00 | 0.00 | 28 | 1019.9 |
| 20260509013904 | 17 | 217 | 0.0 | 16.1 | 0.00 | 0.00 | 0.00 | 26 | 1019.7 |
| 20260509012902 | 17 | 360 | 1.6 | 12.9 | 0.00 | 0.00 | 0.00 | 23 | 1019.7 |
| 20260509010803 | 18 | 330 | 4.8 | 11.3 | 0.00 | 0.00 | 0.00 | 17 | 1019.5 |
| 20260509005803 | 18 | 48 | 0.0 | 6.4 | 0.00 | 0.00 | 0.00 | 17 | 1019.5 |
| 20260509004802 | 18 | 54 | 1.6 | 25.7 | 0.00 | 0.00 | 0.00 | 15 | 1019.6 |
| 20260509003803 | 19 | 360 | 9.7 | 25.7 | 0.00 | 0.00 | 0.00 | 15 | 1019.6 |
| 20260509002803 | 20 | 343 | 4.8 | 14.5 | 0.00 | 0.00 | 0.00 | 15 | 1019.5 |
| 20260509001802 | 20 | 350 | 8.0 | 30.6 | 0.00 | 0.00 | 0.00 | 15 | 1019.5 |
| 20260509000804 | 20 | 357 | 6.4 | 25.7 | 0.00 | 0.00 | 0.00 | 15 | 1019.6 |
| 20260508235803 | 20 | 298 | 1.6 | 14.5 | 0.00 | 0.00 | 0.00 | 15 | 1019.5 |
| 20260508232603 | 20 | 353 | 14.5 | 14.5 | 0.00 | 0.00 | 0.00 | 14 | 1019.2 |
| 20260508231604 | 20 | 360 | 9.7 | 24.1 | 0.00 | 0.00 | 0.00 | 14 | 1019.3 |
| 20260508230602 | 20 | 203 | 3.2 | 20.9 | 0.00 | 0.00 | 0.00 | 15 | 1019.2 |
| 20260508225602 | 20 | 35 | 8.0 | 22.5 | 0.00 | 0.00 | 0.00 | 15 | 1019.2 |
| 20260508224603 | 21 | 360 | 8.0 | 24.1 | 0.00 | 0.00 | 0.00 | 15 | 1019.2 |
| 20260508222503 | 20 | 182 | 11.3 | 19.3 | 0.00 | 0.00 | 0.00 | 15 | 1019.2 |
| 20260508221503 | 20 | 25 | 12.9 | 17.7 | 0.00 | 0.00 | 0.00 | 15 | 1019.3 |
| 20260508220504 | 20 | 40 | 12.9 | 30.6 | 0.00 | 0.00 | 0.00 | 16 | 1019.3 |
| 20260508215503 | 20 | 17 | 22.5 | 35.4 | 0.00 | 0.00 | 0.00 | 14 | 1019.5 |
| 20260508213403 | 20 | 54 | 9.7 | 19.3 | 0.00 | 0.00 | 0.00 | 16 | 1019.6 |
| 20260508211303 | 20 | 10 | 8.0 | 25.7 | 0.00 | 0.00 | 0.00 | 16 | 1019.6 |
| 20260508210304 | 20 | 23 | 3.2 | 11.3 | 0.00 | 0.00 | 0.00 | 18 | 1019.7 |
| 20260508205306 | 20 | 35 | 4.8 | 11.3 | 0.00 | 0.00 | 0.00 | 19 | 1020.0 |
| 20260508204303 | 20 | 292 | 1.6 | 14.5 | 0.00 | 0.00 | 0.00 | 18 | 1020.0 |
| 20260508203304 | 19 | 0 | 4.8 | 20.9 | 0.00 | 0.00 | 0.00 | 19 | 1020.0 |
| 20260508202307 | 19 | 0 | 6.4 | 9.7 | 0.00 | 0.00 | 0.00 | 19 | 1020.3 |
| 20260508201303 | 20 | 295 | 1.6 | 14.5 | 0.00 | 0.00 | 0.00 | 19 | 1020.4 |
| 20260508195203 | 19 | 23 | 4.8 | 17.7 | 0.00 | 0.00 | 0.00 | 20 | 1020.4 |
| 20260508192003 | 20 | 360 | 6.4 | 16.1 | 0.00 | 0.00 | 0.00 | 20 | 1020.4 |
| 20260508191004 | 19 | 34 | 1.6 | 17.7 | 0.00 | 0.00 | 0.00 | 22 | 1020.4 |
| 20260508190002 | 19 | 25 | 8.0 | 19.3 | 0.00 | 0.00 | 0.00 | 19 | 1020.4 |
| 20260508185003 | 19 | 360 | 8.0 | 16.1 | 0.00 | 0.00 | 0.00 | 18 | 1020.4 |
| 20260508184004 | 19 | 326 | 3.2 | 19.3 | 0.00 | 0.00 | 0.00 | 19 | 1020.5 |
| 20260508183002 | 19 | 25 | 3.2 | 19.3 | 0.00 | 0.00 | 0.00 | 19 | 1020.7 |
| 20260508182003 | 19 | 27 | 9.7 | 17.7 | 0.00 | 0.00 | 0.00 | 19 | 1020.9 |
| 20260508181003 | 19 | 333 | 4.8 | 17.7 | 0.00 | 0.00 | 0.00 | 19 | 1020.9 |
| 20260508174904 | 18 | 16 | 0.0 | 17.7 | 0.00 | 0.00 | 0.00 | 20 | 1021.1 |
| 20260508173904 | 18 | 326 | 1.6 | 14.5 | 0.00 | 0.00 | 0.00 | 20 | 1021.1 |
| 20260508172903 | 18 | 0 | 9.7 | 12.9 | 0.00 | 0.00 | 0.00 | 22 | 1021.2 |
| 20260508171903 | 18 | 326 | 8.0 | 9.7 | 0.00 | 0.00 | 0.00 | 20 | 1021.2 |
| 20260508170904 | 18 | 3 | 0.0 | 9.7 | 0.00 | 0.00 | 0.00 | 21 | 1021.2 |
| 20260508165903 | 18 | 339 | 3.2 | 14.5 | 0.00 | 0.00 | 0.00 | 22 | 1021.2 |
| 20260508164903 | 17 | 356 | 4.8 | 19.3 | 0.00 | 0.00 | 0.00 | 22 | 1021.3 |
| 20260508163904 | 17 | 10 | 6.4 | 22.5 | 0.00 | 0.00 | 0.00 | 24 | 1021.5 |
| 20260508161802 | 17 | 360 | 8.0 | 29.0 | 0.00 | 0.00 | 0.00 | 23 | 1021.3 |
| 20260508160803 | 16 | 18 | 11.3 | 25.7 | 0.00 | 0.00 | 0.00 | 25 | 1021.3 |
| 20260508155803 | 16 | 99 | 8.0 | 20.9 | 0.00 | 0.00 | 0.00 | 25 | 1021.5 |
| 20260508154802 | 16 | 47 | 14.5 | 25.7 | 0.00 | 0.00 | 0.00 | 25 | 1021.5 |
| 20260508153803 | 16 | 3 | 4.8 | 11.3 | 0.00 | 0.00 | 0.00 | 27 | 1021.5 |
| 20260508152803 | 15 | 360 | 1.6 | 25.7 | 0.00 | 0.00 | 0.00 | 29 | 1021.6 |
| 20260508151804 | 15 | 45 | 4.8 | 16.1 | 0.00 | 0.00 | 0.00 | 30 | 1021.6 |
| 20260508150805 | 14 | 16 | 9.7 | 19.3 | 0.00 | 0.00 | 0.00 | 32 | 1021.6 |
| 20260508144703 | 12 | 76 | 0.0 | 6.4 | 0.00 | 0.00 | 0.00 | 40 | 1021.9 |
| 20260508143703 | 12 | 56 | 1.6 | 3.2 | 0.00 | 0.00 | 0.00 | 46 | 1021.9 |
| 20260508142704 | 11 | 20 | 0.0 | 1.6 | 0.00 | 0.00 | 0.00 | 50 | 1021.9 |
| 20260508141703 | 11 | 198 | 0.0 | 1.6 | 0.00 | 0.00 | 0.00 | 52 | 1021.9 |
| 20260508140704 | 10 | 198 | 0.0 | 0.0 | 0.00 | 0.00 | 0.00 | 60 | 1022.0 |
| 20260508135704 | 8 | 198 | 0.0 | 0.0 | 0.00 | 0.00 | 0.00 | 62 | 1022.1 |
| 20260508134703 | 8 | 198 | 0.0 | 3.2 | 0.00 | 0.00 | 0.00 | 62 | 1022.0 |
| 20260508132603 | 8 | 52 | 1.6 | 4.8 | 0.00 | 0.00 | 0.00 | 63 | 1021.9 |
| 20260508131603 | 8 | 200 | 0.0 | 4.8 | 0.00 | 0.00 | 0.00 | 62 | 1021.7 |
| 20260508130604 | 7 | 117 | 0.0 | 3.2 | 0.00 | 0.00 | 0.00 | 62 | 1021.6 |
| 20260508125604 | 7 | 195 | 0.0 | 0.0 | 0.00 | 0.00 | 0.00 | 62 | 1021.6 |
| 20260508123503 | 7 | 56 | 0.0 | 0.0 | 0.00 | 0.00 | 0.00 | 63 | 1021.3 |
| 20260508122503 | 7 | 56 | 0.0 | 0.0 | 0.00 | 0.00 | 0.00 | 63 | 1021.3 |